EFW16EA EGKK-LMML

Flight info

Callsign EFW16EA
Flight time N/A
Altitude 35000
Route SFD Y47 BENBO L612 HAWKE UL612 OGULO DCT OKASI DCT OKEKO DCT MOU DCT MADIV DCT MOKIP DCT TUFTA DCT KOGAS DCT MEDAM DCT NITAM DCT MOGBO DCT BAKRO DCT RONAB DCT GIANO DCT MARON DCT EKOLA L12 GZO
Aircraft A320/M-SDE3FGHIRWY/LB1

Departure

Time 2026-05-05 15:52
Airport London Gatwick Airport (EGKK)

Arrival

Time N/A
Airport Malta International Airport (LMML)
Time Latitude Longitude Altitude Speed Heading
2026-05-05 15:17 51.15525 -0.16661 211 ft 0 kts 348°
2026-05-05 15:28 51.15521 -0.16660 205 ft 2 kts 347°
2026-05-05 15:29 51.15503 -0.16653 207 ft 3 kts 342°
2026-05-05 15:29 51.15484 -0.16642 215 ft 3 kts 332°
2026-05-05 15:29 51.15468 -0.16625 214 ft 3 kts 310°
2026-05-05 15:29 51.15459 -0.16603 217 ft 2 kts 265°
2026-05-05 15:30 51.15460 -0.16595 212 ft 0 kts 257°
2026-05-05 15:32 51.15459 -0.16596 212 ft 1 kts 257°
2026-05-05 15:32 51.15458 -0.16604 217 ft 1 kts 256°
2026-05-05 15:32 51.15454 -0.16629 213 ft 3 kts 256°
2026-05-05 15:33 51.15446 -0.16694 214 ft 8 kts 261°
2026-05-05 15:33 51.15453 -0.16789 211 ft 9 kts 270°
2026-05-05 15:33 51.15440 -0.16899 207 ft 11 kts 257°
2026-05-05 15:33 51.15423 -0.17021 205 ft 12 kts 257°
2026-05-05 15:34 51.15399 -0.17152 214 ft 12 kts 243°
2026-05-05 15:34 51.15370 -0.17290 214 ft 13 kts 252°
2026-05-05 15:34 51.15321 -0.17378 208 ft 11 kts 215°
2026-05-05 15:34 51.15294 -0.17498 205 ft 12 kts 258°
2026-05-05 15:35 51.15276 -0.17641 205 ft 14 kts 257°
2026-05-05 15:35 51.15254 -0.17795 210 ft 15 kts 257°
2026-05-05 15:35 51.15231 -0.17957 208 ft 15 kts 257°
2026-05-05 15:35 51.15208 -0.18123 205 ft 15 kts 258°
2026-05-05 15:36 51.15188 -0.18291 214 ft 16 kts 265°
2026-05-05 15:36 51.15170 -0.18448 210 ft 11 kts 257°
2026-05-05 15:36 51.15156 -0.18552 213 ft 8 kts 258°
2026-05-05 15:36 51.15153 -0.18575 205 ft 0 kts 258°
2026-05-05 15:38 51.15150 -0.18596 205 ft 4 kts 258°
2026-05-05 15:38 51.15140 -0.18671 209 ft 10 kts 257°
2026-05-05 15:38 51.15121 -0.18804 204 ft 15 kts 257°
2026-05-05 15:38 51.15097 -0.18983 208 ft 17 kts 258°
2026-05-05 15:39 51.15073 -0.19163 211 ft 14 kts 258°
2026-05-05 15:39 51.15029 -0.19269 212 ft 12 kts 189°
2026-05-05 15:39 51.14958 -0.19326 208 ft 15 kts 251°
2026-05-05 15:39 51.14930 -0.19522 207 ft 21 kts 257°
2026-05-05 15:40 51.14894 -0.19780 216 ft 26 kts 257°
2026-05-05 15:40 51.14852 -0.20091 209 ft 30 kts 257°
2026-05-05 15:40 51.14806 -0.20428 206 ft 31 kts 258°
2026-05-05 15:40 51.14763 -0.20732 204 ft 25 kts 257°
2026-05-05 15:41 51.14736 -0.20928 209 ft 15 kts 258°
2026-05-05 15:41 51.14719 -0.21059 208 ft 9 kts 258°
2026-05-05 15:41 51.14716 -0.21083 205 ft 0 kts 258°
2026-05-05 15:43 51.14715 -0.21084 205 ft 1 kts 258°
2026-05-05 15:43 51.14715 -0.21086 205 ft 0 kts 258°
2026-05-05 15:44 51.14714 -0.21091 207 ft 1 kts 258°
2026-05-05 15:44 51.14709 -0.21129 210 ft 5 kts 258°
2026-05-05 15:44 51.14700 -0.21194 205 ft 7 kts 257°
2026-05-05 15:44 51.14698 -0.21209 208 ft 0 kts 258°
2026-05-05 15:47 51.14696 -0.21229 214 ft 5 kts 257°
2026-05-05 15:47 51.14686 -0.21295 211 ft 7 kts 253°
2026-05-05 15:48 51.14645 -0.21339 205 ft 8 kts 184°
2026-05-05 15:48 51.14617 -0.21331 209 ft 0 kts 166°
2026-05-05 15:49 51.14604 -0.21325 205 ft 4 kts 166°
2026-05-05 15:50 51.14578 -0.21314 210 ft 7 kts 161°
2026-05-05 15:50 51.14536 -0.21265 205 ft 9 kts 129°
2026-05-05 15:50 51.14520 -0.21173 209 ft 7 kts 83°
2026-05-05 15:50 51.14523 -0.21154 206 ft 0 kts 78°
2026-05-05 15:51 51.14526 -0.21131 214 ft 10 kts 77°
2026-05-05 15:51 51.14592 -0.20653 209 ft 76 kts 77°
2026-05-05 15:51 51.14746 -0.19539 214 ft 127 kts 77°
2026-05-05 15:51 51.14968 -0.17938 259 ft 162 kts 77°
2026-05-05 15:52 51.15206 -0.16216 898 ft 158 kts 77°
2026-05-05 15:52 51.15444 -0.14500 1511 ft 162 kts 75°
2026-05-05 15:52 51.15711 -0.12657 1849 ft 179 kts 75°
2026-05-05 15:52 51.15926 -0.10593 2111 ft 202 kts 92°
2026-05-05 15:53 51.15551 -0.08295 2374 ft 229 kts 109°
2026-05-05 15:53 51.14925 -0.05856 2744 ft 250 kts 110°
2026-05-05 15:53 51.14217 -0.03263 3131 ft 256 kts 111°
2026-05-05 15:53 51.13495 -0.00649 3518 ft 259 kts 111°
2026-05-05 15:54 51.12769 0.01950 3965 ft 261 kts 110°
2026-05-05 15:54 51.12012 0.04630 4076 ft 262 kts 111°
2026-05-05 15:54 51.11263 0.07222 4098 ft 263 kts 113°
2026-05-05 15:54 51.10135 0.09498 4265 ft 267 kts 142°
2026-05-05 15:55 51.08392 0.10643 4843 ft 279 kts 170°
2026-05-05 15:55 51.06412 0.10927 5417 ft 283 kts 176°
2026-05-05 15:55 51.04451 0.11087 5789 ft 284 kts 176°
2026-05-05 15:55 51.02499 0.11242 6043 ft 284 kts 176°
2026-05-05 15:56 51.00536 0.11418 6075 ft 283 kts 176°
2026-05-05 15:56 50.98560 0.11591 6476 ft 285 kts 177°
2026-05-05 15:56 50.96567 0.11771 7252 ft 289 kts 176°
2026-05-05 15:56 50.94562 0.11961 8103 ft 289 kts 176°
2026-05-05 15:57 50.92542 0.12162 8853 ft 292 kts 176°
2026-05-05 15:57 50.90502 0.12375 9631 ft 295 kts 176°
2026-05-05 15:57 50.88436 0.12599 10173 ft 306 kts 176°
2026-05-05 15:57 50.86234 0.12824 10317 ft 328 kts 176°
2026-05-05 15:58 50.83887 0.13048 10602 ft 344 kts 176°
2026-05-05 15:58 50.81481 0.13273 11217 ft 348 kts 176°
2026-05-05 15:58 50.79051 0.13478 11819 ft 353 kts 176°
2026-05-05 15:58 50.76591 0.13666 12478 ft 355 kts 176°
2026-05-05 15:59 50.74103 0.13825 13101 ft 359 kts 176°
2026-05-05 15:59 50.71600 0.13970 13765 ft 362 kts 176°
2026-05-05 15:59 50.69080 0.14248 14331 ft 364 kts 171°
2026-05-05 15:59 50.66569 0.14808 14899 ft 366 kts 170°
2026-05-05 16:00 50.64045 0.15437 15462 ft 369 kts 169°
2026-05-05 16:00 50.61499 0.16105 15982 ft 372 kts 169°
2026-05-05 16:00 50.58937 0.16786 16528 ft 375 kts 169°
2026-05-05 16:00 50.56348 0.17468 17061 ft 379 kts 169°
2026-05-05 16:01 50.53734 0.18144 17625 ft 382 kts 169°
2026-05-05 16:01 50.51103 0.18812 18197 ft 384 kts 169°
2026-05-05 16:01 50.48483 0.19469 18688 ft 387 kts 170°
2026-05-05 16:01 50.45813 0.20138 19209 ft 390 kts 170°
2026-05-05 16:02 50.43120 0.20810 19710 ft 394 kts 170°
2026-05-05 16:02 50.40407 0.21485 20213 ft 397 kts 169°
2026-05-05 16:02 50.37656 0.22175 20660 ft 401 kts 169°
2026-05-05 16:02 50.34887 0.22871 21131 ft 405 kts 170°
2026-05-05 16:03 50.32105 0.23566 21623 ft 407 kts 170°
2026-05-05 16:03 50.29280 0.24268 22105 ft 409 kts 170°
2026-05-05 16:03 50.26459 0.24966 22593 ft 412 kts 170°
2026-05-05 16:03 50.23617 0.25686 22999 ft 415 kts 168°
2026-05-05 16:04 50.20828 0.26893 23437 ft 417 kts 158°
2026-05-05 16:04 50.18232 0.28785 23779 ft 419 kts 148°
2026-05-05 16:04 50.15778 0.31265 24169 ft 419 kts 144°
2026-05-05 16:04 50.13351 0.33784 24593 ft 419 kts 145°
2026-05-05 16:05 50.10920 0.36295 25033 ft 419 kts 145°
2026-05-05 16:05 50.08484 0.38795 25460 ft 419 kts 145°
2026-05-05 16:05 50.06053 0.41280 25897 ft 418 kts 146°
2026-05-05 16:05 50.03617 0.43759 26305 ft 418 kts 146°
2026-05-05 16:06 50.01184 0.46227 26720 ft 418 kts 146°
2026-05-05 16:06 49.98747 0.48703 27115 ft 418 kts 146°
2026-05-05 16:06 49.96309 0.51183 27503 ft 419 kts 146°
2026-05-05 16:06 49.93873 0.53663 27920 ft 419 kts 146°
2026-05-05 16:07 49.91441 0.56136 28286 ft 419 kts 146°
2026-05-05 16:07 49.88994 0.58621 28616 ft 421 kts 146°
2026-05-05 16:07 49.86577 0.61070 29037 ft 420 kts 146°
2026-05-05 16:07 49.84254 0.63767 29502 ft 418 kts 141°
2026-05-05 16:08 49.82011 0.66615 29972 ft 417 kts 141°
2026-05-05 16:08 49.79764 0.69461 30367 ft 416 kts 141°
2026-05-05 16:08 49.77515 0.72294 30637 ft 418 kts 141°
2026-05-05 16:08 49.75255 0.75124 30970 ft 419 kts 141°
2026-05-05 16:09 49.72991 0.77956 31395 ft 417 kts 141°
2026-05-05 16:09 49.70746 0.80765 31820 ft 415 kts 141°
2026-05-05 16:09 49.68510 0.83566 32208 ft 415 kts 141°
2026-05-05 16:09 49.66273 0.86368 32595 ft 414 kts 141°
2026-05-05 16:10 49.64030 0.89165 32966 ft 414 kts 141°
2026-05-05 16:10 49.61789 0.91951 33319 ft 414 kts 141°
2026-05-05 16:10 49.59552 0.94732 33700 ft 413 kts 141°
2026-05-05 16:10 49.57322 0.97501 34044 ft 412 kts 141°
2026-05-05 16:11 49.55118 1.00240 34322 ft 412 kts 141°
2026-05-05 16:11 49.48407 1.08577 34860 ft 417 kts 141°
2026-05-05 16:12 49.46134 1.11393 34868 ft 423 kts 141°
2026-05-05 16:13 49.34550 1.25666 34865 ft 428 kts 141°
2026-05-05 16:13 49.29907 1.31370 34863 ft 428 kts 141°
2026-05-05 16:14 49.20635 1.42709 34873 ft 427 kts 141°
2026-05-05 16:15 49.11363 1.53994 34875 ft 427 kts 141°
2026-05-05 16:16 49.02076 1.65232 34865 ft 427 kts 141°
2026-05-05 16:17 48.95094 1.73643 34859 ft 427 kts 141°
2026-05-05 16:18 48.88091 1.82053 34836 ft 428 kts 141°
2026-05-05 16:19 48.81064 1.90468 34829 ft 429 kts 141°
2026-05-05 16:19 48.74054 1.98825 34833 ft 429 kts 141°
2026-05-05 16:20 48.64642 2.09994 34841 ft 430 kts 141°
2026-05-05 16:22 48.53283 2.24645 34830 ft 430 kts 134°
2026-05-05 16:23 48.44864 2.37396 34822 ft 430 kts 134°
2026-05-05 16:23 48.38511 2.46993 34832 ft 431 kts 135°
2026-05-05 16:24 48.34296 2.53338 34818 ft 431 kts 135°
2026-05-05 16:25 48.27694 2.62495 34810 ft 431 kts 146°
2026-05-05 16:25 48.19627 2.68504 34816 ft 431 kts 152°
2026-05-05 16:26 48.09126 2.77114 34818 ft 432 kts 151°
2026-05-05 16:27 48.03647 2.80815 34818 ft 432 kts 156°
2026-05-05 16:27 47.98103 2.84325 34820 ft 432 kts 156°
2026-05-05 16:28 47.92557 2.87807 34824 ft 433 kts 157°
2026-05-05 16:28 47.87027 2.91307 34818 ft 433 kts 156°
2026-05-05 16:29 47.81473 2.94830 34824 ft 433 kts 156°
2026-05-05 16:29 47.75950 2.98313 34827 ft 433 kts 158°
2026-05-05 16:30 47.70389 3.01808 34827 ft 434 kts 158°
2026-05-05 16:30 47.64823 3.05296 34834 ft 434 kts 158°
2026-05-05 16:31 47.59249 3.08785 34842 ft 434 kts 158°
2026-05-05 16:31 47.53716 3.12241 34848 ft 434 kts 158°
2026-05-05 16:32 47.48145 3.15725 34842 ft 434 kts 158°
2026-05-05 16:32 47.42566 3.19196 34843 ft 435 kts 158°
2026-05-05 16:33 47.36979 3.22653 34845 ft 435 kts 158°
2026-05-05 16:33 47.31382 3.26107 34844 ft 436 kts 159°
2026-05-05 16:34 47.25784 3.29562 34843 ft 436 kts 159°
2026-05-05 16:34 47.20213 3.32992 34839 ft 436 kts 159°
2026-05-05 16:35 47.14606 3.36441 34846 ft 436 kts 159°
2026-05-05 16:35 47.09000 3.39878 34862 ft 436 kts 159°
2026-05-05 16:36 47.03400 3.43301 34865 ft 435 kts 159°
2026-05-05 16:36 46.97809 3.46712 34868 ft 435 kts 159°
2026-05-05 16:37 46.92255 3.50097 34868 ft 435 kts 159°
2026-05-05 16:37 46.86650 3.53506 34868 ft 436 kts 160°
2026-05-05 16:38 46.81054 3.56897 34864 ft 436 kts 160°
2026-05-05 16:38 46.76419 3.59845 34862 ft 438 kts 153°
2026-05-05 16:39 46.73893 3.62352 34866 ft 441 kts 142°
2026-05-05 16:39 46.71746 3.65560 34863 ft 445 kts 130°
2026-05-05 16:39 46.70059 3.69361 34861 ft 449 kts 119°
2026-05-05 16:39 46.68923 3.73614 34856 ft 454 kts 107°
2026-05-05 16:40 46.67408 3.82554 34854 ft 455 kts 107°
2026-05-05 16:40 46.65872 3.91495 34857 ft 456 kts 107°
2026-05-05 16:41 46.64338 4.00416 34867 ft 457 kts 107°
2026-05-05 16:41 46.62787 4.09392 34853 ft 457 kts 107°
2026-05-05 16:42 46.61221 4.18367 34861 ft 458 kts 107°
2026-05-05 16:42 46.59637 4.27361 34862 ft 458 kts 107°
2026-05-05 16:43 46.58055 4.36317 34865 ft 458 kts 107°
2026-05-05 16:43 46.56470 4.45294 34858 ft 458 kts 108°
2026-05-05 16:44 46.54884 4.54218 34874 ft 459 kts 108°
2026-05-05 16:44 46.53280 4.63188 34882 ft 459 kts 108°
2026-05-05 16:45 46.51662 4.72164 34893 ft 459 kts 108°
2026-05-05 16:45 46.50039 4.81135 34893 ft 459 kts 108°
2026-05-05 16:46 46.48411 4.90089 34878 ft 459 kts 109°
2026-05-05 16:46 46.46785 4.98981 34882 ft 459 kts 109°
2026-05-05 16:47 46.45146 5.07957 34891 ft 460 kts 109°
2026-05-05 16:47 46.43502 5.16919 34897 ft 460 kts 109°
2026-05-05 16:48 46.41842 5.25928 34885 ft 461 kts 109°
2026-05-05 16:48 46.40182 5.34864 34883 ft 463 kts 110°
2026-05-05 16:49 46.37736 5.43355 34882 ft 452 kts 127°
2026-05-05 16:49 46.33889 5.50455 34896 ft 447 kts 135°
2026-05-05 16:50 46.29850 5.57282 34894 ft 447 kts 135°
2026-05-05 16:50 46.25808 5.64135 34885 ft 448 kts 136°
2026-05-05 16:51 46.21752 5.70997 34904 ft 449 kts 136°
2026-05-05 16:51 46.17710 5.77805 34912 ft 449 kts 136°
2026-05-05 16:52 46.13637 5.84629 34915 ft 449 kts 136°
2026-05-05 16:52 46.09562 5.91452 34919 ft 449 kts 136°
2026-05-05 16:53 46.05475 5.98267 34873 ft 449 kts 137°
2026-05-05 16:53 46.01382 6.05083 34867 ft 451 kts 137°
2026-05-05 16:54 45.97293 6.11878 34863 ft 452 kts 137°
2026-05-05 16:54 45.93173 6.18718 34865 ft 453 kts 137°
2026-05-05 16:55 45.89038 6.25558 34874 ft 454 kts 137°
2026-05-05 16:55 45.84891 6.32389 34856 ft 453 kts 138°
2026-05-05 16:56 45.80651 6.39039 34872 ft 447 kts 146°
2026-05-05 16:56 45.75750 6.44270 34880 ft 441 kts 152°
2026-05-05 16:57 45.70738 6.49365 34900 ft 441 kts 152°
2026-05-05 16:57 45.65727 6.54461 34903 ft 441 kts 152°
2026-05-05 16:58 45.60819 6.59439 34907 ft 441 kts 152°
2026-05-05 16:58 45.55808 6.64514 34862 ft 441 kts 153°
2026-05-05 16:59 45.50829 6.69546 34885 ft 440 kts 153°
2026-05-05 16:59 45.45824 6.74590 34917 ft 440 kts 153°
2026-05-05 17:00 45.40830 6.79603 34912 ft 439 kts 153°
2026-05-05 17:00 45.35819 6.84615 34931 ft 440 kts 153°
2026-05-05 17:01 45.30815 6.89626 34943 ft 440 kts 153°
2026-05-05 17:01 45.25877 6.94787 34948 ft 447 kts 146°
2026-05-05 17:02 45.21421 7.00925 34953 ft 449 kts 144°
2026-05-05 17:02 45.16947 7.07110 34972 ft 448 kts 144°
2026-05-05 17:03 45.12456 7.13265 34963 ft 447 kts 144°
2026-05-05 17:03 45.08462 7.20105 34965 ft 460 kts 133°
2026-05-05 17:04 45.04785 7.27520 34972 ft 460 kts 133°
2026-05-05 17:04 45.01095 7.34929 34973 ft 460 kts 133°
2026-05-05 17:05 44.97266 7.42102 34963 ft 450 kts 142°
2026-05-05 17:05 44.92898 7.48417 34948 ft 449 kts 143°
2026-05-05 17:06 44.88526 7.54722 34948 ft 449 kts 143°
2026-05-05 17:06 44.84147 7.61020 34946 ft 450 kts 143°
2026-05-05 17:07 44.79783 7.67264 34930 ft 450 kts 143°
2026-05-05 17:07 44.75391 7.73559 34948 ft 451 kts 143°
2026-05-05 17:08 44.70988 7.79853 34938 ft 451 kts 144°
2026-05-05 17:08 44.66579 7.86138 34947 ft 451 kts 144°
2026-05-05 17:09 44.62163 7.92411 34951 ft 451 kts 144°
2026-05-05 17:09 44.57741 7.98679 34915 ft 451 kts 144°
2026-05-05 17:10 44.53316 8.04941 34923 ft 452 kts 144°
2026-05-05 17:10 44.48909 8.11164 34930 ft 453 kts 144°
2026-05-05 17:11 44.44461 8.17432 34935 ft 453 kts 144°
2026-05-05 17:11 44.40010 8.23685 34943 ft 453 kts 144°